Total_Precipitation_Accumulation
2.06 2.14 2.09 2.07 2.07 1.98 1.96 2.12 2.23 2.06 1.89 1.70 1.55 1.48 1.50 1.41 1.49 1.33 1.28 1.21 1.06 1.01 1.03 0.99 1.13 1.45 1.68 1.86 2.03 2.05 2.19 2.31 2.39 2.52 2.50 2.36 2.34 2.17
2.05 2.17 2.20 2.18 2.20 2.14 2.02 2.00 1.96 2.00 1.91 1.70 1.51 1.43 1.54 1.40 1.50 1.31 1.25 1.40 1.21 1.13 1.05 0.93 0.91 1.00 1.13 1.32 1.57 1.68 1.72 1.77 1.85 2.10 2.30 2.31 2.23 2.05
1.84 1.95 2.07 2.16 2.28 2.30 2.30 2.19 2.05 1.98 1.90 1.76 1.57 1.46 1.59 1.60 1.51 1.45 1.32 1.25 1.25 1.23 1.11 1.05 0.99 0.88 0.94 1.04 1.26 1.41 1.48 1.34 1.27 1.43 1.68 1.80 2.00 2.02
1.72 1.69 1.76 1.86 2.02 2.17 2.26 2.21 2.20 2.08 1.99 1.99 1.83 1.59 1.49 1.56 1.59 1.66 1.56 1.32 1.28 1.37 1.30 1.20 1.12 0.98 0.89 0.93 1.02 1.08 1.13 1.14 1.05 1.01 1.12 1.23 1.34 1.53
1.50 1.47 1.47 1.55 1.70 1.85 1.95 2.02 2.14 2.16 2.17 2.10 2.04 1.87 1.63 1.62 1.67 1.68 1.69 1.73 1.50 1.41 1.41 1.35 1.27 1.16 1.08 0.98 0.94 0.96 0.93 0.95 0.94 0.87 0.85 0.98 1.03 1.17
1.19 1.19 1.22 1.27 1.37 1.52 1.67 1.88 2.06 2.15 2.22 2.20 2.11 1.90 1.74 1.71 1.68 1.69 1.77 1.84 1.81 1.57 1.46 1.39 1.42 1.37 1.21 1.11 1.03 1.00 1.00 0.95 0.95 0.94 0.86 0.82 0.86 0.89
0.96 0.86 0.88 0.96 1.00 1.10 1.14 1.43 1.68 1.90 2.02 2.08 2.06 1.92 1.72 1.63 1.50 1.53 1.66 1.83 1.90 1.85 1.76 1.48 1.41 1.36 1.31 1.25 1.16 1.08 1.04 1.07 1.03 1.01 1.01 0.94 0.94 0.92
0.85 0.77 0.74 0.79 0.73 0.70 0.74 0.96 1.25 1.44 1.62 1.80 1.87 1.75 1.61 1.55 1.60 1.59 1.59 1.64 1.67 1.60 1.59 1.60 1.51 1.43 1.36 1.29 1.29 1.26 1.18 1.14 1.18 1.14 1.12 1.09 1.07 1.11
0.87 0.89 0.80 0.75 0.85 0.75 0.69 0.76 0.84 0.95 1.11 1.38 1.61 1.60 1.70 1.63 1.54 1.49 1.51 1.55 1.54 1.59 1.59 1.59 1.49 1.40 1.30 1.27 1.40 1.31 1.31 1.27 1.29 1.32 1.23 1.23 1.21 1.20
0.92 1.00 1.00 0.94 0.92 0.99 0.92 0.93 0.90 0.83 0.91 0.83 1.03 1.41 1.56 1.62 1.58 1.62 1.72 1.66 1.52 1.54 1.55 1.57 1.49 1.38 1.25 1.17 1.27 1.18 1.12 1.12 1.20 1.37 1.45 1.43 1.44 1.41
0.84 0.96 1.00 0.95 1.01 1.06 1.17 1.23 1.15 1.00 1.11 1.11 1.02 1.13 1.28 1.34 1.45 1.56 1.63 1.57 1.52 1.43 1.31 1.28 1.24 1.28 1.32 1.23 1.19 1.23 1.14 1.10 1.07 1.09 1.19 1.26 1.37 1.51
0.86 0.92 1.07 1.00 0.98 0.95 1.03 1.17 1.16 1.02 0.90 0.93 0.90 0.80 0.74 0.85 1.05 1.23 1.52 1.64 1.59 1.49 1.29 1.22 1.25 1.23 1.26 1.18 1.08 1.10 1.10 1.17 1.17 1.10 1.13 1.19 1.27 1.31
0.97 1.02 1.00 1.09 0.93 0.89 0.89 0.91 1.00 0.99 0.96 1.01 1.08 0.97 0.84 0.80 0.84 0.93 1.15 1.39 1.54 1.46 1.31 1.19 1.23 1.26 1.17 1.04 0.99 1.00 1.01 1.00 1.04 1.11 1.16 1.26 1.31 1.23
0.87 0.88 0.85 0.94 0.80 0.71 0.66 0.72 0.79 0.84 0.92 1.05 1.04 1.00 0.98 0.93 0.91 0.95 1.01 1.13 1.24 1.32 1.32 1.28 1.24 1.21 1.17 1.03 0.97 0.97 0.97 0.95 0.92 0.97 1.01 1.25 1.40 1.43
0.59 0.70 0.72 0.70 0.65 0.58 0.62 0.67 0.68 0.70 0.81 0.90 0.92 0.89 0.88 0.92 0.93 0.94 0.98 1.03 1.03 0.99 1.01 1.08 1.19 1.22 1.21 1.12 0.99 0.97 0.98 0.93 0.86 0.87 0.94 1.02 1.09 1.25
0.51 0.54 0.56 0.54 0.54 0.56 0.59 0.63 0.68 0.72 0.75 0.78 0.79 0.82 0.83 0.89 0.95 0.94 0.95 1.02 1.10 1.05 1.00 1.03 1.12 1.24 1.25 1.16 1.11 1.04 1.02 0.97 0.88 0.85 0.86 0.93 1.02 1.12
0.60 0.56 0.53 0.54 0.55 0.62 0.65 0.64 0.66 0.70 0.69 0.69 0.71 0.73 0.73 0.79 0.84 0.85 0.89 0.95 1.00 0.97 0.96 1.03 1.10 1.17 1.19 1.19 1.21 1.13 1.11 1.10 1.06 1.02 0.98 0.95 0.95 1.02
0.60 0.67 0.69 0.75 0.78 0.78 0.75 0.66 0.60 0.60 0.65 0.71 0.71 0.72 0.73 0.72 0.76 0.80 0.84 0.92 0.97 0.90 0.84 0.88 1.00 1.11 1.12 1.03 0.97 0.96 1.00 1.02 1.08 1.13 1.09 1.03 0.98 1.00
0.58 0.74 0.76 0.75 0.71 0.69 0.65 0.58 0.52 0.49 0.51 0.60 0.70 0.77 0.79 0.79 0.82 0.87 0.87 0.86 0.87 0.88 0.82 0.78 0.83 0.97 1.03 0.90 0.79 0.78 0.81 0.85 0.95 1.00 1.02 0.97 0.92 0.95
0.55 0.65 0.68 0.66 0.59 0.53 0.46 0.41 0.39 0.38 0.37 0.42 0.49 0.58 0.74 0.86 0.94 0.97 0.99 1.01 1.00 0.97 0.92 0.82 0.76 0.78 0.87 0.88 0.78 0.67 0.67 0.74 0.84 0.88 0.88 0.91 0.91 0.98
0.36 0.38 0.40 0.42 0.41 0.36 0.33 0.33 0.34 0.33 0.34 0.36 0.40 0.45 0.56 0.71 0.89 0.99 1.02 1.07 1.07 1.06 1.05 0.97 0.94 0.99 0.90 0.92 0.89 0.69 0.61 0.65 0.74 0.77 0.81 0.90 0.92 0.89
0.29 0.29 0.31 0.32 0.31 0.30 0.29 0.31 0.34 0.35 0.33 0.36 0.42 0.48 0.59 0.65 0.71 0.82 0.97 1.00 0.94 0.91 0.92 0.95 0.99 1.01 0.96 1.00 0.96 0.82 0.71 0.66 0.71 0.79 0.82 0.87 0.89 0.88
0.30 0.32 0.34 0.34 0.33 0.36 0.36 0.36 0.36 0.38 0.37 0.38 0.42 0.49 0.58 0.68 0.74 0.77 0.80 0.84 0.89 0.91 0.92 0.92 0.92 0.92 0.94 0.99 1.07 1.04 0.91 0.80 0.77 0.80 0.82 0.91 0.87 0.77